Regional Weather Roundup
Issued by NWS

Home | Current Version | Previous Version | Graphics & Text | Print | Product List | Glossary On
Versions: 1 2 3 4 5 6 7 8 9 10 11 12 13 14 15 16 17 18 19 20 21 22 23 24 25 26 27 28 29 30 31 32 33 34 35 36 37 38 39 40 41 42 43 44 45 46 47 48 49 50
036
ASUS43 KBIS 260402
RWRND

NORTH DAKOTA REGIONAL WEATHER ROUNDUP
NATIONAL WEATHER SERVICE BISMARCK ND
1100 PM CDT MON JUL 25 2016

NOTE: "FAIR" INDICATES FEW OR NO CLOUDS BELOW 12,000 FEET WITH NO
SIGNIFICANT WEATHER AND/OR OBSTRUCTIONS TO VISIBILITY.


NDZ001>003-009>011-017-260500-
NORTHWEST NORTH DAKOTA

CITY           SKY/WX    TMP DP  RH WIND       PRES   REMARKS
WILLISTON      CLEAR     77  59  53 E7        29.99R
MINOT          CLEAR     74  66  76 NE3       29.97R
MINOT AFB      CLEAR     67  63  86 N5        29.97R
$$

NDZ018>021-031>035-040>046-260500-
SOUTHWEST NORTH DAKOTA

CITY           SKY/WX    TMP DP  RH WIND       PRES   REMARKS
BISMARCK       CLEAR     81  67  62 NE12      29.94R
DICKINSON      CLOUDY    69  58  67 NE8       29.99R
GARRISON         N/A     72  68  87 NE6       29.98R
HETTINGER ARPT CLOUDY    77  51  40 N3        29.99S
$$

NDZ004>008-012>016-024-026-027-054-260500-
NORTHEAST NORTH DAKOTA

CITY           SKY/WX    TMP DP  RH WIND       PRES   REMARKS
GRAND FORKS    MOCLDY    77  70  79 NE10      29.90R
GRND FRKS AFB  PTCLDY    76  69  79 NE8       29.92R
DEVILS LAKE    CLEAR     73  68  84 NE6       29.96S
$$

NDZ022-023-025-028>030-036>039-047>053-260500-
SOUTHEAST NORTH DAKOTA

CITY           SKY/WX    TMP DP  RH WIND       PRES   REMARKS
FARGO          PTCLDY    79  66  64 S13       29.91S
JAMESTOWN      CLEAR     72  67  84 S3        29.92S
$$





USA.gov is the U.S. government's official web portal to all federal, state and local government web resources and services.